Terminal Aerodrome Forecast
Issued by NWS Duluth, MN

Home | Current Version | Previous Version | Text Only | Print | Product List | Glossary On
Versions: 1 2 3 4 5 6 7 8 9 10 11 12 13 14 15 16 17 18 19 20 21 22 23
000
FTUS43 KDLH 260500
TAFINL
TAF
KINL 260520Z 2606/2706 25005KT P6SM SKC
     FM262000 12007KT P6SM SCT080 BKN150
     FM270100 14009KT P6SM VCTS SCT040CB BKN070=

USA.gov is the U.S. government's official web portal to all federal, state and local government web resources and services.